Weather History for Charles City, IA

Change the Weather History Date:

Monday, May 20, 2013

  Actual Average Record
Temperature  
Mean Temperature 66 °F -  
Max Temperature 73 °F 74 °F 93 °F (1948)
Min Temperature 60 °F 48 °F 31 °F (1954)
Cooling Degree Days 2    
Growing Degree Days 16 (Base 50)    
Moisture  
Dew Point 59 °F    
Average Humidity 78    
Maximum Humidity 100    
Minimum Humidity 60    
Precipitation  
Precipitation 0.30 in - - ()
Sea Level Pressure  
Sea Level Pressure 29.62 in    
Wind  
Wind Speed 13 mph (South)    
Max Wind Speed 25 mph    
Max Gust Speed 34 mph    
Visibility 10 miles    
Events Rain    
Averages and records for this station are not official NWS values.
T = Trace of Precipitation, MM = Missing Value Source: NWS Daily Summary

Daily Weather History Graph

Daily Weather History Graph

Search for Another Location

Airport:

Trip Planner

Search our weather history database for the weather conditions in past years. The results will help you decide how hot, cold, wet, or windy it might be!

Date:

Astronomy

May. 20, 2013 Rise Set
Actual Time 5:41 AM CDT 8:32 PM CDT
Civil Twilight 5:08 AM CDT 9:06 PM CDT
Nautical Twilight 4:26 AM CDT 9:48 PM CDT
Astronomical Twilight 3:37 AM CDT 10:37 PM CDT
Moon 3:33 PM CDT (5/20) 2:45 AM CDT (5/20)
Length of Visible Light 15h 57m
Length of Day
14h 50m
Waxing Gibbous, 75% of the Moon is Illuminated
May 20
Waxing Gibbous
May 24
Full
May 31
Last Quarter
Jun 8
New
Jun 16
First Quarter

Hourly Weather History & Observations

Time (CDT) Temp. Dew Point Humidity Pressure Visibility Wind Dir Wind Speed Gust Speed Precip Events Conditions
12:15 AM 62.6 °F 62.6 °F 100% 29.70 in 3.0 mi SSE 11.5 mph - N/A Rain Rain
12:35 AM 62.6 °F 60.8 °F 94% 29.63 in 4.0 mi East 9.2 mph - N/A Rain Light Rain
12:55 AM 62.6 °F 60.8 °F 94% 29.63 in 8.0 mi SE 8.1 mph - 0.19 in Rain Light Rain
1:15 AM 62.6 °F 60.8 °F 94% 29.63 in 9.0 mi SSE 6.9 mph - N/A Rain Light Rain
1:35 AM 62.6 °F 60.8 °F 94% 29.64 in 10.0 mi SE 10.4 mph - N/A   Overcast
1:55 AM 62.6 °F 60.8 °F 94% 29.63 in 9.0 mi SE 9.2 mph - 0.01 in   Overcast
2:15 AM 62.6 °F 60.8 °F 94% 29.61 in 10.0 mi ESE 12.7 mph - N/A   Overcast
2:35 AM 62.6 °F 60.8 °F 94% 29.61 in 8.0 mi ESE 10.4 mph - N/A   Overcast
3:15 AM 62.6 °F 60.8 °F 94% 29.59 in 9.0 mi SE 9.2 mph - N/A   Overcast
3:35 AM 60.8 °F 60.8 °F 100% 29.57 in 10.0 mi ESE 10.4 mph - N/A   Overcast
3:55 AM 60.8 °F 60.8 °F 100% 29.57 in 10.0 mi ESE 10.4 mph - N/A   Mostly Cloudy
4:35 AM 60.8 °F 59.0 °F 94% 29.57 in 10.0 mi SSE 15.0 mph - N/A   Clear
4:55 AM 60.8 °F 59.0 °F 94% 29.56 in 10.0 mi SE 12.7 mph 18.4 mph N/A   Scattered Clouds
5:15 AM 60.8 °F 59.0 °F 94% 29.59 in 10.0 mi SSE 12.7 mph 19.6 mph N/A   Overcast
5:35 AM 60.8 °F 59.0 °F 94% 29.59 in 10.0 mi SSE 12.7 mph - N/A   Mostly Cloudy
6:15 AM 60.8 °F 59.0 °F 94% 29.61 in 10.0 mi South 16.1 mph - N/A   Overcast
7:15 AM 62.6 °F 59.0 °F 88% 29.62 in 10.0 mi South 16.1 mph - N/A   Overcast
7:35 AM 62.6 °F 59.0 °F 88% 29.62 in 10.0 mi South 15.0 mph - N/A   Overcast
7:55 AM 62.6 °F 59.0 °F 88% 29.62 in 10.0 mi South 16.1 mph - N/A   Overcast
8:15 AM 62.6 °F 59.0 °F 88% 29.62 in 10.0 mi South 17.3 mph - N/A   Overcast
8:35 AM 64.4 °F 60.8 °F 88% 29.63 in 10.0 mi South 13.8 mph 23.0 mph N/A   Overcast
8:55 AM 64.4 °F 59.0 °F 83% 29.61 in 10.0 mi South 13.8 mph 20.7 mph N/A   Scattered Clouds
9:15 AM 66.2 °F 60.8 °F 83% 29.61 in 10.0 mi South 17.3 mph - N/A   Clear
9:35 AM 68.0 °F 60.8 °F 78% 29.61 in 10.0 mi South 20.7 mph - N/A   Partly Cloudy
9:55 AM 66.2 °F 59.0 °F 78% 29.62 in 10.0 mi South 20.7 mph 29.9 mph N/A   Mostly Cloudy
10:35 AM 68.0 °F 60.8 °F 78% 29.62 in 10.0 mi South 20.7 mph 28.8 mph N/A   Mostly Cloudy
10:55 AM 69.8 °F 59.0 °F 68% 29.62 in 10.0 mi SSW 21.9 mph 29.9 mph N/A   Mostly Cloudy
11:15 AM 69.8 °F 60.8 °F 73% 29.63 in 10.0 mi SSW 17.3 mph 32.2 mph N/A   Mostly Cloudy
11:35 AM 68.0 °F 59.0 °F 73% 29.63 in 10.0 mi SSW 20.7 mph 29.9 mph N/A   Mostly Cloudy
11:55 AM 69.8 °F 59.0 °F 68% 29.62 in 10.0 mi SSW 25.3 mph 32.2 mph N/A   Mostly Cloudy
12:15 PM 69.8 °F 59.0 °F 68% 29.63 in 10.0 mi SSW 21.9 mph 28.8 mph N/A   Overcast
12:35 PM 69.8 °F 59.0 °F 68% 29.64 in 10.0 mi SW 20.7 mph 28.8 mph N/A   Overcast
12:55 PM 69.8 °F 59.0 °F 68% 29.64 in 10.0 mi SW 20.7 mph 32.2 mph N/A   Mostly Cloudy
1:15 PM 71.6 °F 59.0 °F 64% 29.65 in 10.0 mi SW 20.7 mph 34.5 mph N/A   Mostly Cloudy
1:55 PM 71.6 °F 59.0 °F 64% 29.66 in 10.0 mi SSW 18.4 mph 29.9 mph N/A   Unknown
2:15 PM 71.6 °F 59.0 °F 64% 29.66 in 10.0 mi SSW 17.3 mph 26.5 mph N/A   Unknown
2:35 PM 71.6 °F 60.8 °F 69% 29.66 in 10.0 mi SW 20.7 mph 27.6 mph N/A   Mostly Cloudy
2:55 PM 71.6 °F 60.8 °F 69% 29.66 in 10.0 mi SW 17.3 mph 24.2 mph N/A   Mostly Cloudy
3:15 PM 73.4 °F 60.8 °F 65% 29.66 in 10.0 mi SSW 19.6 mph 27.6 mph N/A   Scattered Clouds
3:35 PM 71.6 °F 59.0 °F 64% 29.67 in 10.0 mi SSW 17.3 mph 25.3 mph N/A   Scattered Clouds
3:55 PM 73.4 °F 59.0 °F 61% 29.66 in 10.0 mi SW 20.7 mph - N/A   Scattered Clouds
4:15 PM 71.6 °F 57.2 °F 60% 29.66 in 10.0 mi SSW 17.3 mph - N/A   Scattered Clouds
4:35 PM 71.6 °F 59.0 °F 64% 29.66 in 10.0 mi SW 15.0 mph - N/A   Mostly Cloudy
4:55 PM 71.6 °F 59.0 °F 64% 29.66 in 10.0 mi SW 11.5 mph - N/A   Mostly Cloudy
5:15 PM 73.4 °F 59.0 °F 61% 29.65 in 10.0 mi SW 15.0 mph - N/A   Scattered Clouds
5:35 PM 73.4 °F 59.0 °F 61% 29.64 in 10.0 mi SSW 10.4 mph - N/A   Partly Cloudy
5:55 PM 73.4 °F 59.0 °F 61% 29.65 in 10.0 mi SW 15.0 mph - N/A   Mostly Cloudy
6:15 PM 73.4 °F 59.0 °F 61% 29.64 in 10.0 mi SSW 11.5 mph - N/A   Mostly Cloudy
6:35 PM 73.4 °F 59.0 °F 61% 29.63 in 10.0 mi SSW 12.7 mph - N/A   Mostly Cloudy
6:55 PM 73.4 °F 60.8 °F 65% 29.62 in 10.0 mi SSW 9.2 mph - N/A   Scattered Clouds
7:15 PM 71.6 °F 59.0 °F 64% 29.62 in 10.0 mi SSW 8.1 mph - N/A   Mostly Cloudy
7:35 PM 73.4 °F 59.0 °F 61% 29.61 in 10.0 mi South 8.1 mph - N/A   Scattered Clouds
7:55 PM 71.6 °F 59.0 °F 64% 29.61 in 10.0 mi South 5.8 mph - N/A   Partly Cloudy
8:15 PM 71.6 °F 59.0 °F 64% 29.61 in 10.0 mi SSE 5.8 mph - N/A   Scattered Clouds
8:35 PM 69.8 °F 59.0 °F 68% 29.60 in 10.0 mi SE 6.9 mph - N/A Rain Light Rain
9:15 PM 68.0 °F 60.8 °F 78% 29.60 in 10.0 mi SE 11.5 mph - N/A Rain Light Rain
9:35 PM 66.2 °F 60.8 °F 83% 29.62 in 4.0 mi South 21.9 mph 27.6 mph N/A Rain Light Rain
9:55 PM 62.6 °F 57.2 °F 82% 29.61 in 5.0 mi SSE 21.9 mph - 0.07 in Rain Light Rain
10:15 PM 60.8 °F 57.2 °F 88% 29.60 in 10.0 mi SE 9.2 mph 16.1 mph N/A   Overcast
10:35 PM 60.8 °F 57.2 °F 88% 29.58 in 10.0 mi SSE 13.8 mph - N/A   Mostly Cloudy
10:55 PM 62.6 °F 55.4 °F 77% 29.58 in 10.0 mi South 18.4 mph - 0.03 in   Overcast
11:15 PM 60.8 °F 57.2 °F 88% 29.57 in 10.0 mi South 15.0 mph - N/A   Overcast
11:35 PM 60.8 °F 57.2 °F 88% 29.58 in 10.0 mi SSW 9.2 mph - N/A   Overcast
11:55 PM 60.8 °F 57.2 °F 88% 29.58 in 10.0 mi SW 8.1 mph - N/A   Overcast